Location: All Saints Catholic Church
(32.7815°N, 97.3514°W)
Time: 21:47:48
(UTC+00:00)

Daily predictions for brighter satellites

Satellite Brightness Start Highest point End
(mag) Time Altitude Azimuth Time Altitude Azimuth Time Altitude Azimuth
Milstar 3 Cent rocket 3.6 12:01:50 16° WSW 12:05:26 34° SSW 12:12:42 10° SE
Meteor 2-17 Rocket 4.3 12:00:05 10° N 12:06:09 81° W 12:12:11 10° S
Cosmos 1933 3.3 12:06:43 10° NNW 12:10:36 58° W 12:14:27 10° S
ERS-2 1.7 12:08:29 10° NNE 12:11:25 74° ESE 12:14:19 10° S
Cosmos 1627 Rocket 4.5 12:05:50 10° N 12:12:13 78° W 12:18:31 10° S
SAR-Lupe-2 4.4 12:09:06 10° NNE 12:12:37 53° ESE 12:16:06 10° S
Cosmos 1862 3.3 12:09:18 10° SSW 12:13:02 53° W 12:16:48 10° N
Cosmos 2151 3.0 12:08:58 10° S 12:13:08 79° E 12:17:20 10° N
COSMO-SKYMED 1 2.7 12:09:04 10° S 12:13:17 53° W 12:17:31 10° NNW
Meteor 2-3 Rocket 4.2 12:08:17 10° SW 12:13:21 35° WNW 12:18:25 10° NNW
PSLV R/B 3.4 12:10:29 10° N 12:14:45 67° WNW 12:18:57 10° SSW
GENESIS II 4.1 12:18:33 10° SSW 12:22:22 86° WNW 12:26:15 10° NNE
USA 215 3.5 12:17:01 10° NNE 12:23:14 49° NW 12:29:27 10° WSW
SJ-7 4.5 12:22:29 10° NNE 12:26:36 83° ESE 12:30:40 10° S
BlueWalker 3 2.0 12:25:35 15° NW 12:28:40 59° SW 12:32:25 10° SSE
ATLAS 2A CENTAUR R/B 3.5 12:32:03 10° WSW 12:34:28 15° SSW 12:36:04 10° S
SMAP 3.5 12:32:36 10° NNE 12:37:14 66° ESE 12:41:51 10° S
Cosmos 1110 Rocket 4.0 12:32:40 10° NNW 12:37:58 76° WSW 12:43:13 10° S
Cosmos 1842 Rocket 3.9 12:34:20 10° N 12:38:46 73° E 12:43:12 10° SSE
BREEZE-M R/B 3.2 12:32:15 10° NW 12:39:06 87° SW 12:42:34 10° SE
Aureole 2 4.3 12:36:38 10° NNW 12:39:38 67° ENE 12:42:29 10° SSE
Cosmos 1437 Rocket 3.0 12:38:07 10° SSW 12:41:40 42° W 12:45:11 10° N
Cosmos 1782 4.2 12:39:21 10° NW 12:42:00 18° W 12:44:37 10° SW
H-2A R/B 3.6 12:40:24 10° NW 12:42:26 13° WNW 12:44:29 10° W
Helios 1B rocket 2.7 12:41:13 10° N 12:44:59 43° WNW 12:48:45 10° SW
CZ-4B R/B 4.2 12:43:42 10° NNE 12:47:45 77° ESE 12:51:56 10° S
DELTA 2 DEB (DPAF) 4.1 12:44:29 10° SSE 12:48:45 89° E 12:53:04 10° NNW
Cosmos 1515 4.1 12:46:14 10° NNW 12:49:34 36° W 12:52:53 10° SSW
SL-16 R/B 2.6 23:36:21 10° NNW 23:42:01 74° WSW 23:47:38 10° SSE
APEX 3.5 23:48:50 10° SW 23:51:57 47° WNW 23:54:45 10° N
Cosmos 1943 3.7 23:47:29 10° N 23:52:39 36° ENE 23:57:48 10° SE
Cosmos-2242 3.0 23:49:07 10° S 23:53:26 78° E 23:57:46 10° N
CZ-2D R/B 3.9 23:49:51 10° S 23:53:28 58° W 23:57:05 10° NNW
